owner,sensor,date,latitude,longitude,air_temperature,qcFlag 
WAVCIS,ioos:station:WAVCIS:CSI09:1,2010-09-01T00:00:00Z,29.1015,-89.9782,27.84,11111222 
WAVCIS,ioos:station:WAVCIS:CSI09:1,2010-09-01T01:00:00Z,29.1015,-89.9782,27.8,11111222 
WAVCIS,ioos:station:WAVCIS:CSI09:1,2010-09-01T02:00:00Z,29.1015,-89.9782,27.88,11111222 
WAVCIS,ioos:station:WAVCIS:CSI09:1,2010-09-01T03:00:00Z,29.1015,-89.9782,27.72,11111222 
WAVCIS,ioos:station:WAVCIS:CSI09:1,2010-09-01T04:00:00Z,29.1015,-89.9782,27.54,11111222 
WAVCIS,ioos:station:WAVCIS:CSI09:1,2010-09-01T05:00:00Z,29.1015,-89.9782,27.37,11111222 
WAVCIS,ioos:station:WAVCIS:CSI09:1,2010-09-01T06:00:00Z,29.1015,-89.9782,27.43,11111222 
WAVCIS,ioos:station:WAVCIS:CSI09:1,2010-09-01T07:00:00Z,29.1015,-89.9782,27.55,11111222 
WAVCIS,ioos:station:WAVCIS:CSI09:1,2010-09-01T08:00:00Z,29.1015,-89.9782,27.56,11111222 
WAVCIS,ioos:station:WAVCIS:CSI09:1,2010-09-01T09:00:00Z,29.1015,-89.9782,27.36,11111222 
WAVCIS,ioos:station:WAVCIS:CSI09:1,2010-09-01T10:00:00Z,29.1015,-89.9782,27.35,11111222 
WAVCIS,ioos:station:WAVCIS:CSI09:1,2010-09-01T11:00:00Z,29.1015,-89.9782,27.44,11111222 
WAVCIS,ioos:station:WAVCIS:CSI09:1,2010-09-01T12:00:00Z,29.1015,-89.9782,27.43,11111222 
WAVCIS,ioos:station:WAVCIS:CSI09:1,2010-09-01T13:00:00Z,29.1015,-89.9782,27.84,11111222 
WAVCIS,ioos:station:WAVCIS:CSI09:1,2010-09-01T14:00:00Z,29.1015,-89.9782,27.81,11111222 
WAVCIS,ioos:station:WAVCIS:CSI09:1,2010-09-01T15:00:00Z,29.1015,-89.9782,28.04,11111222 
WAVCIS,ioos:station:WAVCIS:CSI09:1,2010-09-01T16:00:00Z,29.1015,-89.9782,28.17,11111222 
WAVCIS,ioos:station:WAVCIS:CSI09:1,2010-09-01T17:00:00Z,29.1015,-89.9782,28.26,11111222 
WAVCIS,ioos:station:WAVCIS:CSI09:1,2010-09-01T18:00:00Z,29.1015,-89.9782,28.01,11111222 
WAVCIS,ioos:station:WAVCIS:CSI09:1,2010-09-01T19:00:00Z,29.1015,-89.9782,27.89,11111222 
WAVCIS,ioos:station:WAVCIS:CSI09:1,2010-09-01T20:00:00Z,29.1015,-89.9782,28.2,11111222 
WAVCIS,ioos:station:WAVCIS:CSI09:1,2010-09-01T21:00:00Z,29.1015,-89.9782,28.37,11111222 
WAVCIS,ioos:station:WAVCIS:CSI09:1,2010-09-01T22:00:00Z,29.1015,-89.9782,28.17,11111222 
WAVCIS,ioos:station:WAVCIS:CSI09:1,2010-09-01T23:00:00Z,29.1015,-89.9782,28.29,11111222 
WAVCIS,ioos:station:WAVCIS:CSI09:1,2010-09-02T00:00:00Z,29.1015,-89.9782,28.31,11111222 
WAVCIS,ioos:station:WAVCIS:CSI09:1,2010-09-02T01:00:00Z,29.1015,-89.9782,27.83,11111222 
WAVCIS,ioos:station:WAVCIS:CSI09:1,2010-09-02T02:00:00Z,29.1015,-89.9782,27.85,11111222 
WAVCIS,ioos:station:WAVCIS:CSI09:1,2010-09-02T03:00:00Z,29.1015,-89.9782,27.69,11111222 
WAVCIS,ioos:station:WAVCIS:CSI09:1,2010-09-02T04:00:00Z,29.1015,-89.9782,27.68,11111222 
WAVCIS,ioos:station:WAVCIS:CSI09:1,2010-09-02T05:00:00Z,29.1015,-89.9782,27.53,11111222 
WAVCIS,ioos:station:WAVCIS:CSI09:1,2010-09-02T06:00:00Z,29.1015,-89.9782,27.44,11111222 
WAVCIS,ioos:station:WAVCIS:CSI09:1,2010-09-02T07:00:00Z,29.1015,-89.9782,27.39,11111222 
WAVCIS,ioos:station:WAVCIS:CSI09:1,2010-09-02T08:00:00Z,29.1015,-89.9782,27.31,11111222 
WAVCIS,ioos:station:WAVCIS:CSI09:1,2010-09-02T09:00:00Z,29.1015,-89.9782,27.21,11111222 
WAVCIS,ioos:station:WAVCIS:CSI09:1,2010-09-02T10:00:00Z,29.1015,-89.9782,27.09,11111222 
WAVCIS,ioos:station:WAVCIS:CSI09:1,2010-09-02T11:00:00Z,29.1015,-89.9782,27.0,11111222 
WAVCIS,ioos:station:WAVCIS:CSI09:1,2010-09-02T12:00:00Z,29.1015,-89.9782,27.09,11111222 
WAVCIS,ioos:station:WAVCIS:CSI09:1,2010-09-02T13:00:00Z,29.1015,-89.9782,27.91,11111222 
WAVCIS,ioos:station:WAVCIS:CSI09:1,2010-09-02T14:00:00Z,29.1015,-89.9782,27.92,11111222 
WAVCIS,ioos:station:WAVCIS:CSI09:1,2010-09-02T15:00:00Z,29.1015,-89.9782,28.04,11111222 
WAVCIS,ioos:station:WAVCIS:CSI09:1,2010-09-02T16:00:00Z,29.1015,-89.9782,28.29,11111222 
WAVCIS,ioos:station:WAVCIS:CSI09:1,2010-09-02T17:00:00Z,29.1015,-89.9782,28.21,11111222 
WAVCIS,ioos:station:WAVCIS:CSI09:1,2010-09-02T18:00:00Z,29.1015,-89.9782,28.73,11111222 
WAVCIS,ioos:station:WAVCIS:CSI09:1,2010-09-02T19:00:00Z,29.1015,-89.9782,28.92,11111222 
WAVCIS,ioos:station:WAVCIS:CSI09:1,2010-09-02T20:00:00Z,29.1015,-89.9782,28.74,11111222 
WAVCIS,ioos:station:WAVCIS:CSI09:1,2010-09-02T21:00:00Z,29.1015,-89.9782,28.98,11111222 
WAVCIS,ioos:station:WAVCIS:CSI09:1,2010-09-02T22:00:00Z,29.1015,-89.9782,28.97,11111222 
WAVCIS,ioos:station:WAVCIS:CSI09:1,2010-09-02T23:00:00Z,29.1015,-89.9782,28.86,11111222 
WAVCIS,ioos:station:WAVCIS:CSI09:1,2010-09-03T00:00:00Z,29.1015,-89.9782,28.35,11111222 
WAVCIS,ioos:station:WAVCIS:CSI09:1,2010-09-03T01:00:00Z,29.1015,-89.9782,27.98,11111222 
WAVCIS,ioos:station:WAVCIS:CSI09:1,2010-09-03T02:00:00Z,29.1015,-89.9782,27.87,11111222 
WAVCIS,ioos:station:WAVCIS:CSI09:1,2010-09-03T03:00:00Z,29.1015,-89.9782,27.74,11111222 
WAVCIS,ioos:station:WAVCIS:CSI09:1,2010-09-03T04:00:00Z,29.1015,-89.9782,27.58,11111222 
WAVCIS,ioos:station:WAVCIS:CSI09:1,2010-09-03T05:00:00Z,29.1015,-89.9782,27.44,11111222 
WAVCIS,ioos:station:WAVCIS:CSI09:1,2010-09-03T06:00:00Z,29.1015,-89.9782,27.58,11111222 
WAVCIS,ioos:station:WAVCIS:CSI09:1,2010-09-03T07:00:00Z,29.1015,-89.9782,27.68,11111222 
WAVCIS,ioos:station:WAVCIS:CSI09:1,2010-09-03T08:00:00Z,29.1015,-89.9782,27.6,11111222 
WAVCIS,ioos:station:WAVCIS:CSI09:1,2010-09-03T09:00:00Z,29.1015,-89.9782,27.51,11111222 
WAVCIS,ioos:station:WAVCIS:CSI09:1,2010-09-03T10:00:00Z,29.1015,-89.9782,27.39,11111222 
WAVCIS,ioos:station:WAVCIS:CSI09:1,2010-09-03T11:00:00Z,29.1015,-89.9782,27.42,11111222 
WAVCIS,ioos:station:WAVCIS:CSI09:1,2010-09-03T12:00:00Z,29.1015,-89.9782,27.34,11111222 
WAVCIS,ioos:station:WAVCIS:CSI09:1,2010-09-03T13:00:00Z,29.1015,-89.9782,27.92,11111222 
WAVCIS,ioos:station:WAVCIS:CSI09:1,2010-09-03T14:00:00Z,29.1015,-89.9782,27.89,11111222 
WAVCIS,ioos:station:WAVCIS:CSI09:1,2010-09-03T15:00:00Z,29.1015,-89.9782,27.66,11111222 
WAVCIS,ioos:station:WAVCIS:CSI09:1,2010-09-03T16:00:00Z,29.1015,-89.9782,27.68,11111222 
WAVCIS,ioos:station:WAVCIS:CSI09:1,2010-09-03T17:00:00Z,29.1015,-89.9782,27.79,11111222 
WAVCIS,ioos:station:WAVCIS:CSI09:1,2010-09-03T18:00:00Z,29.1015,-89.9782,27.71,11111222 
WAVCIS,ioos:station:WAVCIS:CSI09:1,2010-09-03T19:00:00Z,29.1015,-89.9782,28.14,11111222 
WAVCIS,ioos:station:WAVCIS:CSI09:1,2010-09-03T20:00:00Z,29.1015,-89.9782,28.42,11111222 
WAVCIS,ioos:station:WAVCIS:CSI09:1,2010-09-03T21:00:00Z,29.1015,-89.9782,28.36,11111222 
WAVCIS,ioos:station:WAVCIS:CSI09:1,2010-09-03T22:00:00Z,29.1015,-89.9782,28.77,11111222 
WAVCIS,ioos:station:WAVCIS:CSI09:1,2010-09-03T23:00:00Z,29.1015,-89.9782,28.73,11111222 
WAVCIS,ioos:station:WAVCIS:CSI09:1,2010-09-04T00:00:00Z,29.1015,-89.9782,28.54,11111222 
WAVCIS,ioos:station:WAVCIS:CSI09:1,2010-09-04T01:00:00Z,29.1015,-89.9782,28.18,11111222 
WAVCIS,ioos:station:WAVCIS:CSI09:1,2010-09-04T02:00:00Z,29.1015,-89.9782,27.92,11111222 
WAVCIS,ioos:station:WAVCIS:CSI09:1,2010-09-04T03:00:00Z,29.1015,-89.9782,27.78,11111222 
WAVCIS,ioos:station:WAVCIS:CSI09:1,2010-09-04T04:00:00Z,29.1015,-89.9782,27.64,11111222 
WAVCIS,ioos:station:WAVCIS:CSI09:1,2010-09-04T05:00:00Z,29.1015,-89.9782,27.42,11111222 
WAVCIS,ioos:station:WAVCIS:CSI09:1,2010-09-04T06:00:00Z,29.1015,-89.9782,27.27,11111222 
WAVCIS,ioos:station:WAVCIS:CSI09:1,2010-09-04T07:00:00Z,29.1015,-89.9782,27.06,11111222 
WAVCIS,ioos:station:WAVCIS:CSI09:1,2010-09-04T08:00:00Z,29.1015,-89.9782,27.17,11111222 
WAVCIS,ioos:station:WAVCIS:CSI09:1,2010-09-04T09:00:00Z,29.1015,-89.9782,27.03,11111222 
WAVCIS,ioos:station:WAVCIS:CSI09:1,2010-09-04T10:00:00Z,29.1015,-89.9782,27.06,11111222 
WAVCIS,ioos:station:WAVCIS:CSI09:1,2010-09-04T11:00:00Z,29.1015,-89.9782,26.95,11111222 
WAVCIS,ioos:station:WAVCIS:CSI09:1,2010-09-04T12:00:00Z,29.1015,-89.9782,26.62,11111222 
WAVCIS,ioos:station:WAVCIS:CSI09:1,2010-09-04T13:00:00Z,29.1015,-89.9782,26.78,11111222 
WAVCIS,ioos:station:WAVCIS:CSI09:1,2010-09-04T14:00:00Z,29.1015,-89.9782,26.76,11111222 
WAVCIS,ioos:station:WAVCIS:CSI09:1,2010-09-04T15:00:00Z,29.1015,-89.9782,27.36,11111222 
WAVCIS,ioos:station:WAVCIS:CSI09:1,2010-09-04T16:00:00Z,29.1015,-89.9782,27.18,11111222 
WAVCIS,ioos:station:WAVCIS:CSI09:1,2010-09-04T17:00:00Z,29.1015,-89.9782,27.49,11111222 
WAVCIS,ioos:station:WAVCIS:CSI09:1,2010-09-04T18:00:00Z,29.1015,-89.9782,27.25,11111222 
WAVCIS,ioos:station:WAVCIS:CSI09:1,2010-09-04T19:00:00Z,29.1015,-89.9782,27.34,11111222 
WAVCIS,ioos:station:WAVCIS:CSI09:1,2010-09-04T20:00:00Z,29.1015,-89.9782,27.56,11111222 
WAVCIS,ioos:station:WAVCIS:CSI09:1,2010-09-04T21:00:00Z,29.1015,-89.9782,27.85,11111222 
WAVCIS,ioos:station:WAVCIS:CSI09:1,2010-09-04T22:00:00Z,29.1015,-89.9782,27.99,11111222 
WAVCIS,ioos:station:WAVCIS:CSI09:1,2010-09-04T23:00:00Z,29.1015,-89.9782,28.19,11111222 
WAVCIS,ioos:station:WAVCIS:CSI09:1,2010-09-05T00:00:00Z,29.1015,-89.9782,27.7,11111222 
WAVCIS,ioos:station:WAVCIS:CSI09:1,2010-09-05T01:00:00Z,29.1015,-89.9782,27.52,11111222 
WAVCIS,ioos:station:WAVCIS:CSI09:1,2010-09-05T02:00:00Z,29.1015,-89.9782,27.36,11111222 
WAVCIS,ioos:station:WAVCIS:CSI09:1,2010-09-05T03:00:00Z,29.1015,-89.9782,27.31,11111222 
WAVCIS,ioos:station:WAVCIS:CSI09:1,2010-09-05T04:00:00Z,29.1015,-89.9782,27.28,11111222 
WAVCIS,ioos:station:WAVCIS:CSI09:1,2010-09-05T05:00:00Z,29.1015,-89.9782,27.35,11111222 
WAVCIS,ioos:station:WAVCIS:CSI09:1,2010-09-05T06:00:00Z,29.1015,-89.9782,27.65,11111222 
WAVCIS,ioos:station:WAVCIS:CSI09:1,2010-09-05T07:00:00Z,29.1015,-89.9782,27.48,11111222 
WAVCIS,ioos:station:WAVCIS:CSI09:1,2010-09-05T08:00:00Z,29.1015,-89.9782,27.4,11111222 
WAVCIS,ioos:station:WAVCIS:CSI09:1,2010-09-05T09:00:00Z,29.1015,-89.9782,27.29,11111222 
WAVCIS,ioos:station:WAVCIS:CSI09:1,2010-09-05T10:00:00Z,29.1015,-89.9782,27.21,11111222 
WAVCIS,ioos:station:WAVCIS:CSI09:1,2010-09-05T11:00:00Z,29.1015,-89.9782,27.39,11111222 
WAVCIS,ioos:station:WAVCIS:CSI09:1,2010-09-05T12:00:00Z,29.1015,-89.9782,27.41,11111222 
WAVCIS,ioos:station:WAVCIS:CSI09:1,2010-09-05T13:00:00Z,29.1015,-89.9782,27.71,11111222 
WAVCIS,ioos:station:WAVCIS:CSI09:1,2010-09-05T14:00:00Z,29.1015,-89.9782,27.67,11111222 
WAVCIS,ioos:station:WAVCIS:CSI09:1,2010-09-05T15:00:00Z,29.1015,-89.9782,27.76,11111222 
WAVCIS,ioos:station:WAVCIS:CSI09:1,2010-09-05T16:00:00Z,29.1015,-89.9782,27.79,11111222 
WAVCIS,ioos:station:WAVCIS:CSI09:1,2010-09-05T17:00:00Z,29.1015,-89.9782,27.95,11111222 
WAVCIS,ioos:station:WAVCIS:CSI09:1,2010-09-05T18:00:00Z,29.1015,-89.9782,26.46,11111222 
WAVCIS,ioos:station:WAVCIS:CSI09:1,2010-09-05T19:00:00Z,29.1015,-89.9782,26.74,11111222 
WAVCIS,ioos:station:WAVCIS:CSI09:1,2010-09-05T20:00:00Z,29.1015,-89.9782,26.19,11111222 
WAVCIS,ioos:station:WAVCIS:CSI09:1,2010-09-05T21:00:00Z,29.1015,-89.9782,26.51,11111222 
WAVCIS,ioos:station:WAVCIS:CSI09:1,2010-09-05T22:00:00Z,29.1015,-89.9782,26.42,11111222 
WAVCIS,ioos:station:WAVCIS:CSI09:1,2010-09-05T23:00:00Z,29.1015,-89.9782,26.94,11111222 
WAVCIS,ioos:station:WAVCIS:CSI09:1,2010-09-06T00:00:00Z,29.1015,-89.9782,26.73,11111222 
WAVCIS,ioos:station:WAVCIS:CSI09:1,2010-09-06T01:00:00Z,29.1015,-89.9782,26.48,11111222 
WAVCIS,ioos:station:WAVCIS:CSI09:1,2010-09-06T02:00:00Z,29.1015,-89.9782,26.71,11111222 
WAVCIS,ioos:station:WAVCIS:CSI09:1,2010-09-06T03:00:00Z,29.1015,-89.9782,26.89,11111222 
WAVCIS,ioos:station:WAVCIS:CSI09:1,2010-09-06T04:00:00Z,29.1015,-89.9782,26.85,11111222 
WAVCIS,ioos:station:WAVCIS:CSI09:1,2010-09-06T05:00:00Z,29.1015,-89.9782,26.91,11111222 
WAVCIS,ioos:station:WAVCIS:CSI09:1,2010-09-06T06:00:00Z,29.1015,-89.9782,27.06,11111222 
WAVCIS,ioos:station:WAVCIS:CSI09:1,2010-09-06T07:00:00Z,29.1015,-89.9782,27.23,11111222 
WAVCIS,ioos:station:WAVCIS:CSI09:1,2010-09-06T08:00:00Z,29.1015,-89.9782,27.35,11111222 
WAVCIS,ioos:station:WAVCIS:CSI09:1,2010-09-06T09:00:00Z,29.1015,-89.9782,27.39,11111222 
WAVCIS,ioos:station:WAVCIS:CSI09:1,2010-09-06T10:00:00Z,29.1015,-89.9782,27.61,11111222 
WAVCIS,ioos:station:WAVCIS:CSI09:1,2010-09-06T11:00:00Z,29.1015,-89.9782,27.67,11111222 
WAVCIS,ioos:station:WAVCIS:CSI09:1,2010-09-06T12:00:00Z,29.1015,-89.9782,27.92,11111222 
WAVCIS,ioos:station:WAVCIS:CSI09:1,2010-09-06T13:00:00Z,29.1015,-89.9782,28.33,11111222 
WAVCIS,ioos:station:WAVCIS:CSI09:1,2010-09-06T14:00:00Z,29.1015,-89.9782,28.52,11111222 
WAVCIS,ioos:station:WAVCIS:CSI09:1,2010-09-06T15:00:00Z,29.1015,-89.9782,28.38,11111222 
WAVCIS,ioos:station:WAVCIS:CSI09:1,2010-09-06T16:00:00Z,29.1015,-89.9782,28.49,11111222 
WAVCIS,ioos:station:WAVCIS:CSI09:1,2010-09-06T17:00:00Z,29.1015,-89.9782,28.61,11111222 
WAVCIS,ioos:station:WAVCIS:CSI09:1,2010-09-06T18:00:00Z,29.1015,-89.9782,28.64,11111222 
WAVCIS,ioos:station:WAVCIS:CSI09:1,2010-09-06T19:00:00Z,29.1015,-89.9782,28.72,11111222 
WAVCIS,ioos:station:WAVCIS:CSI09:1,2010-09-06T20:00:00Z,29.1015,-89.9782,28.75,11111222 
WAVCIS,ioos:station:WAVCIS:CSI09:1,2010-09-06T21:00:00Z,29.1015,-89.9782,28.89,11111222 
WAVCIS,ioos:station:WAVCIS:CSI09:1,2010-09-06T22:00:00Z,29.1015,-89.9782,29.09,11111222 
WAVCIS,ioos:station:WAVCIS:CSI09:1,2010-09-06T23:00:00Z,29.1015,-89.9782,28.97,11111222 
WAVCIS,ioos:station:WAVCIS:CSI09:1,2010-09-07T00:00:00Z,29.1015,-89.9782,28.63,11111222 
WAVCIS,ioos:station:WAVCIS:CSI09:1,2010-09-07T01:00:00Z,29.1015,-89.9782,28.57,11111222 
WAVCIS,ioos:station:WAVCIS:CSI09:1,2010-09-07T02:00:00Z,29.1015,-89.9782,28.46,11111222 
WAVCIS,ioos:station:WAVCIS:CSI09:1,2010-09-07T03:00:00Z,29.1015,-89.9782,28.55,11111222 
WAVCIS,ioos:station:WAVCIS:CSI09:1,2010-09-07T04:00:00Z,29.1015,-89.9782,28.53,11111222 
WAVCIS,ioos:station:WAVCIS:CSI09:1,2010-09-07T05:00:00Z,29.1015,-89.9782,28.53,11111222 
WAVCIS,ioos:station:WAVCIS:CSI09:1,2010-09-07T06:00:00Z,29.1015,-89.9782,28.52,11111222 
WAVCIS,ioos:station:WAVCIS:CSI09:1,2010-09-07T07:00:00Z,29.1015,-89.9782,28.46,11111222 
WAVCIS,ioos:station:WAVCIS:CSI09:1,2010-09-07T08:00:00Z,29.1015,-89.9782,28.45,11111222 
WAVCIS,ioos:station:WAVCIS:CSI09:1,2010-09-07T09:00:00Z,29.1015,-89.9782,28.06,11111222 
WAVCIS,ioos:station:WAVCIS:CSI09:1,2010-09-07T10:00:00Z,29.1015,-89.9782,28.41,11111222 
WAVCIS,ioos:station:WAVCIS:CSI09:1,2010-09-07T11:00:00Z,29.1015,-89.9782,28.39,11111222 
WAVCIS,ioos:station:WAVCIS:CSI09:1,2010-09-07T12:00:00Z,29.1015,-89.9782,28.34,11111222 
WAVCIS,ioos:station:WAVCIS:CSI09:1,2010-09-07T13:00:00Z,29.1015,-89.9782,28.64,11111222 
WAVCIS,ioos:station:WAVCIS:CSI09:1,2010-09-07T14:00:00Z,29.1015,-89.9782,28.7,11111222 
WAVCIS,ioos:station:WAVCIS:CSI09:1,2010-09-07T15:00:00Z,29.1015,-89.9782,28.84,11111222 
WAVCIS,ioos:station:WAVCIS:CSI09:1,2010-09-07T16:00:00Z,29.1015,-89.9782,28.88,11111222 
WAVCIS,ioos:station:WAVCIS:CSI09:1,2010-09-07T17:00:00Z,29.1015,-89.9782,28.88,11111222 
WAVCIS,ioos:station:WAVCIS:CSI09:1,2010-09-07T18:00:00Z,29.1015,-89.9782,28.98,11111222 
WAVCIS,ioos:station:WAVCIS:CSI09:1,2010-09-07T19:00:00Z,29.1015,-89.9782,29.09,11111222 
WAVCIS,ioos:station:WAVCIS:CSI09:1,2010-09-07T20:00:00Z,29.1015,-89.9782,29.09,11111222 
WAVCIS,ioos:station:WAVCIS:CSI09:1,2010-09-07T21:00:00Z,29.1015,-89.9782,29.21,11111222 
WAVCIS,ioos:station:WAVCIS:CSI09:1,2010-09-07T22:00:00Z,29.1015,-89.9782,29.33,11111222 
WAVCIS,ioos:station:WAVCIS:CSI09:1,2010-09-07T23:00:00Z,29.1015,-89.9782,29.04,11111222 
WAVCIS,ioos:station:WAVCIS:CSI09:1,2010-09-08T00:00:00Z,29.1015,-89.9782,28.72,11111222 
WAVCIS,ioos:station:WAVCIS:CSI09:1,2010-09-08T01:00:00Z,29.1015,-89.9782,28.59,11111222 
WAVCIS,ioos:station:WAVCIS:CSI09:1,2010-09-08T02:00:00Z,29.1015,-89.9782,28.57,11111222 
WAVCIS,ioos:station:WAVCIS:CSI09:1,2010-09-08T03:00:00Z,29.1015,-89.9782,28.43,11111222 
WAVCIS,ioos:station:WAVCIS:CSI09:1,2010-09-08T04:00:00Z,29.1015,-89.9782,28.44,11111222 
WAVCIS,ioos:station:WAVCIS:CSI09:1,2010-09-08T05:00:00Z,29.1015,-89.9782,28.27,11111222 
WAVCIS,ioos:station:WAVCIS:CSI09:1,2010-09-08T06:00:00Z,29.1015,-89.9782,28.23,11111222 
WAVCIS,ioos:station:WAVCIS:CSI09:1,2010-09-08T07:00:00Z,29.1015,-89.9782,28.16,11111222 
WAVCIS,ioos:station:WAVCIS:CSI09:1,2010-09-08T08:00:00Z,29.1015,-89.9782,28.11,11111222 
WAVCIS,ioos:station:WAVCIS:CSI09:1,2010-09-08T09:00:00Z,29.1015,-89.9782,28.07,11111222 
WAVCIS,ioos:station:WAVCIS:CSI09:1,2010-09-08T10:00:00Z,29.1015,-89.9782,28.11,11111222 
WAVCIS,ioos:station:WAVCIS:CSI09:1,2010-09-08T11:00:00Z,29.1015,-89.9782,28.01,11111222 
WAVCIS,ioos:station:WAVCIS:CSI09:1,2010-09-08T12:00:00Z,29.1015,-89.9782,28.05,11111222 
WAVCIS,ioos:station:WAVCIS:CSI09:1,2010-09-08T13:00:00Z,29.1015,-89.9782,28.57,11111222 
WAVCIS,ioos:station:WAVCIS:CSI09:1,2010-09-08T14:00:00Z,29.1015,-89.9782,28.69,11111222 
WAVCIS,ioos:station:WAVCIS:CSI09:1,2010-09-08T15:00:00Z,29.1015,-89.9782,28.68,11111222 
WAVCIS,ioos:station:WAVCIS:CSI09:1,2010-09-08T16:00:00Z,29.1015,-89.9782,28.35,11111222 
WAVCIS,ioos:station:WAVCIS:CSI09:1,2010-09-08T17:00:00Z,29.1015,-89.9782,28.4,11111222 
WAVCIS,ioos:station:WAVCIS:CSI09:1,2010-09-08T18:00:00Z,29.1015,-89.9782,28.73,11111222 
WAVCIS,ioos:station:WAVCIS:CSI09:1,2010-09-08T19:00:00Z,29.1015,-89.9782,28.98,11111222 
WAVCIS,ioos:station:WAVCIS:CSI09:1,2010-09-08T20:00:00Z,29.1015,-89.9782,29.15,11111222 
WAVCIS,ioos:station:WAVCIS:CSI09:1,2010-09-08T21:00:00Z,29.1015,-89.9782,29.21,11111222 
WAVCIS,ioos:station:WAVCIS:CSI09:1,2010-09-08T22:00:00Z,29.1015,-89.9782,29.28,11111222 
WAVCIS,ioos:station:WAVCIS:CSI09:1,2010-09-08T23:00:00Z,29.1015,-89.9782,29.16,11111222 
WAVCIS,ioos:station:WAVCIS:CSI09:1,2010-09-09T00:00:00Z,29.1015,-89.9782,28.83,11111222 
WAVCIS,ioos:station:WAVCIS:CSI09:1,2010-09-09T01:00:00Z,29.1015,-89.9782,28.55,11111222 
WAVCIS,ioos:station:WAVCIS:CSI09:1,2010-09-09T02:00:00Z,29.1015,-89.9782,28.56,11111222 
WAVCIS,ioos:station:WAVCIS:CSI09:1,2010-09-09T03:00:00Z,29.1015,-89.9782,28.47,11111222 
WAVCIS,ioos:station:WAVCIS:CSI09:1,2010-09-09T04:00:00Z,29.1015,-89.9782,28.44,11111222 
WAVCIS,ioos:station:WAVCIS:CSI09:1,2010-09-09T05:00:00Z,29.1015,-89.9782,28.36,11111222 
WAVCIS,ioos:station:WAVCIS:CSI09:1,2010-09-09T06:00:00Z,29.1015,-89.9782,28.21,11111222 
WAVCIS,ioos:station:WAVCIS:CSI09:1,2010-09-09T07:00:00Z,29.1015,-89.9782,28.1,11111222 
WAVCIS,ioos:station:WAVCIS:CSI09:1,2010-09-09T08:00:00Z,29.1015,-89.9782,28.01,11111222 
WAVCIS,ioos:station:WAVCIS:CSI09:1,2010-09-09T09:00:00Z,29.1015,-89.9782,27.99,11111222 
WAVCIS,ioos:station:WAVCIS:CSI09:1,2010-09-09T10:00:00Z,29.1015,-89.9782,27.87,11111222 
WAVCIS,ioos:station:WAVCIS:CSI09:1,2010-09-09T11:00:00Z,29.1015,-89.9782,27.72,11111222 
WAVCIS,ioos:station:WAVCIS:CSI09:1,2010-09-09T12:00:00Z,29.1015,-89.9782,27.73,11111222 
WAVCIS,ioos:station:WAVCIS:CSI09:1,2010-09-09T13:00:00Z,29.1015,-89.9782,29.89,11111222 
WAVCIS,ioos:station:WAVCIS:CSI09:1,2010-09-09T14:00:00Z,29.1015,-89.9782,32.02,11111222 
WAVCIS,ioos:station:WAVCIS:CSI09:1,2010-09-09T15:00:00Z,29.1015,-89.9782,30.72,11111222 
WAVCIS,ioos:station:WAVCIS:CSI09:1,2010-09-09T16:00:00Z,29.1015,-89.9782,30.11,11111222 
WAVCIS,ioos:station:WAVCIS:CSI09:1,2010-09-09T17:00:00Z,29.1015,-89.9782,28.98,11111222 
WAVCIS,ioos:station:WAVCIS:CSI09:1,2010-09-09T18:00:00Z,29.1015,-89.9782,29.62,11111222 
WAVCIS,ioos:station:WAVCIS:CSI09:1,2010-09-09T19:00:00Z,29.1015,-89.9782,29.84,11111222 
WAVCIS,ioos:station:WAVCIS:CSI09:1,2010-09-09T20:00:00Z,29.1015,-89.9782,30.24,11111222 
WAVCIS,ioos:station:WAVCIS:CSI09:1,2010-09-09T21:00:00Z,29.1015,-89.9782,30.36,11111222 
WAVCIS,ioos:station:WAVCIS:CSI09:1,2010-09-09T22:00:00Z,29.1015,-89.9782,30.57,11111222 
WAVCIS,ioos:station:WAVCIS:CSI09:1,2010-09-09T23:00:00Z,29.1015,-89.9782,30.01,11111222 
WAVCIS,ioos:station:WAVCIS:CSI09:1,2010-09-10T00:00:00Z,29.1015,-89.9782,29.32,11111222 
WAVCIS,ioos:station:WAVCIS:CSI09:1,2010-09-10T01:00:00Z,29.1015,-89.9782,29.08,11111222 
WAVCIS,ioos:station:WAVCIS:CSI09:1,2010-09-10T02:00:00Z,29.1015,-89.9782,29.12,11111222 
WAVCIS,ioos:station:WAVCIS:CSI09:1,2010-09-10T03:00:00Z,29.1015,-89.9782,29.01,11111222 
WAVCIS,ioos:station:WAVCIS:CSI09:1,2010-09-10T04:00:00Z,29.1015,-89.9782,28.8,11111222 
WAVCIS,ioos:station:WAVCIS:CSI09:1,2010-09-10T05:00:00Z,29.1015,-89.9782,28.62,11111222 
WAVCIS,ioos:station:WAVCIS:CSI09:1,2010-09-10T06:00:00Z,29.1015,-89.9782,28.58,11111222 
WAVCIS,ioos:station:WAVCIS:CSI09:1,2010-09-10T07:00:00Z,29.1015,-89.9782,28.57,11111222 
WAVCIS,ioos:station:WAVCIS:CSI09:1,2010-09-10T08:00:00Z,29.1015,-89.9782,28.46,11111222 
WAVCIS,ioos:station:WAVCIS:CSI09:1,2010-09-10T09:00:00Z,29.1015,-89.9782,28.48,11111222 
WAVCIS,ioos:station:WAVCIS:CSI09:1,2010-09-10T10:00:00Z,29.1015,-89.9782,28.55,11111222 
WAVCIS,ioos:station:WAVCIS:CSI09:1,2010-09-10T11:00:00Z,29.1015,-89.9782,28.3,11111222 
WAVCIS,ioos:station:WAVCIS:CSI09:1,2010-09-10T12:00:00Z,29.1015,-89.9782,28.51,11111222 
WAVCIS,ioos:station:WAVCIS:CSI09:1,2010-09-10T13:00:00Z,29.1015,-89.9782,28.72,11111222 
WAVCIS,ioos:station:WAVCIS:CSI09:1,2010-09-10T14:00:00Z,29.1015,-89.9782,29.52,11111222 
WAVCIS,ioos:station:WAVCIS:CSI09:1,2010-09-10T15:00:00Z,29.1015,-89.9782,31.24,11111222 
WAVCIS,ioos:station:WAVCIS:CSI09:1,2010-09-10T16:00:00Z,29.1015,-89.9782,30.43,11111222 
WAVCIS,ioos:station:WAVCIS:CSI09:1,2010-09-10T17:00:00Z,29.1015,-89.9782,30.14,11111222 
WAVCIS,ioos:station:WAVCIS:CSI09:1,2010-09-10T18:00:00Z,29.1015,-89.9782,29.44,11111222 
WAVCIS,ioos:station:WAVCIS:CSI09:1,2010-09-10T19:00:00Z,29.1015,-89.9782,29.64,11111222 
WAVCIS,ioos:station:WAVCIS:CSI09:1,2010-09-10T20:00:00Z,29.1015,-89.9782,30.17,11111222 
WAVCIS,ioos:station:WAVCIS:CSI09:1,2010-09-10T21:00:00Z,29.1015,-89.9782,30.11,11111222 
WAVCIS,ioos:station:WAVCIS:CSI09:1,2010-09-10T22:00:00Z,29.1015,-89.9782,30.39,11111222 
WAVCIS,ioos:station:WAVCIS:CSI09:1,2010-09-10T23:00:00Z,29.1015,-89.9782,30.09,11111222 
WAVCIS,ioos:station:WAVCIS:CSI09:1,2010-09-11T00:00:00Z,29.1015,-89.9782,29.69,11111222 
WAVCIS,ioos:station:WAVCIS:CSI09:1,2010-09-11T01:00:00Z,29.1015,-89.9782,29.43,11111222 
WAVCIS,ioos:station:WAVCIS:CSI09:1,2010-09-11T02:00:00Z,29.1015,-89.9782,29.35,11111222 
WAVCIS,ioos:station:WAVCIS:CSI09:1,2010-09-11T03:00:00Z,29.1015,-89.9782,29.3,11111222 
WAVCIS,ioos:station:WAVCIS:CSI09:1,2010-09-11T04:00:00Z,29.1015,-89.9782,29.17,11111222 
WAVCIS,ioos:station:WAVCIS:CSI09:1,2010-09-11T05:00:00Z,29.1015,-89.9782,29.1,11111222 
WAVCIS,ioos:station:WAVCIS:CSI09:1,2010-09-11T06:00:00Z,29.1015,-89.9782,28.93,11111222 
WAVCIS,ioos:station:WAVCIS:CSI09:1,2010-09-11T07:00:00Z,29.1015,-89.9782,28.9,11111222 
WAVCIS,ioos:station:WAVCIS:CSI09:1,2010-09-11T08:00:00Z,29.1015,-89.9782,28.84,11111222 
WAVCIS,ioos:station:WAVCIS:CSI09:1,2010-09-11T09:00:00Z,29.1015,-89.9782,29.44,11111222 
WAVCIS,ioos:station:WAVCIS:CSI09:1,2010-09-11T10:00:00Z,29.1015,-89.9782,28.92,11111222 
WAVCIS,ioos:station:WAVCIS:CSI09:1,2010-09-11T11:00:00Z,29.1015,-89.9782,28.7,11111222 
WAVCIS,ioos:station:WAVCIS:CSI09:1,2010-09-11T12:00:00Z,29.1015,-89.9782,28.67,11111222 
WAVCIS,ioos:station:WAVCIS:CSI09:1,2010-09-11T13:00:00Z,29.1015,-89.9782,29.19,11111222 
WAVCIS,ioos:station:WAVCIS:CSI09:1,2010-09-11T14:00:00Z,29.1015,-89.9782,28.37,11111222 
WAVCIS,ioos:station:WAVCIS:CSI09:1,2010-09-11T15:00:00Z,29.1015,-89.9782,29.41,11111222 
WAVCIS,ioos:station:WAVCIS:CSI09:1,2010-09-11T16:00:00Z,29.1015,-89.9782,29.62,11111222 
WAVCIS,ioos:station:WAVCIS:CSI09:1,2010-09-11T17:00:00Z,29.1015,-89.9782,29.65,11111222 
WAVCIS,ioos:station:WAVCIS:CSI09:1,2010-09-11T18:00:00Z,29.1015,-89.9782,29.61,11111222 
WAVCIS,ioos:station:WAVCIS:CSI09:1,2010-09-11T19:00:00Z,29.1015,-89.9782,29.74,11111222 
WAVCIS,ioos:station:WAVCIS:CSI09:1,2010-09-11T20:00:00Z,29.1015,-89.9782,29.87,11111222 
WAVCIS,ioos:station:WAVCIS:CSI09:1,2010-09-11T21:00:00Z,29.1015,-89.9782,29.85,11111222 
WAVCIS,ioos:station:WAVCIS:CSI09:1,2010-09-11T22:00:00Z,29.1015,-89.9782,30.27,11111222 
WAVCIS,ioos:station:WAVCIS:CSI09:1,2010-09-11T23:00:00Z,29.1015,-89.9782,30.16,11111222 
WAVCIS,ioos:station:WAVCIS:CSI09:1,2010-09-12T00:00:00Z,29.1015,-89.9782,29.9,11111222 
WAVCIS,ioos:station:WAVCIS:CSI09:1,2010-09-12T01:00:00Z,29.1015,-89.9782,29.7,11111222 
WAVCIS,ioos:station:WAVCIS:CSI09:1,2010-09-12T02:00:00Z,29.1015,-89.9782,29.67,11111222 
WAVCIS,ioos:station:WAVCIS:CSI09:1,2010-09-12T03:00:00Z,29.1015,-89.9782,29.56,11111222 
WAVCIS,ioos:station:WAVCIS:CSI09:1,2010-09-12T04:00:00Z,29.1015,-89.9782,29.99,11111222 